EST,Max TemperatureF,Mean TemperatureF,Min TemperatureF,Max Dew PointF,MeanDew PointF,Min DewpointF,Max Humidity, Mean Humidity, Min Humidity, Max Sea Level PressureIn, Mean Sea Level PressureIn, Min Sea Level PressureIn, Max VisibilityMiles, Mean VisibilityMiles, Min VisibilityMiles, Max Wind SpeedMPH, Mean Wind SpeedMPH, Max Gust SpeedMPH,PrecipitationIn, CloudCover, Events, WindDirDegrees
2012-12-1,60,45,29,41,35,28,85,66,47,30.33,30.26,30.21,10,10,8,13,5,20,0.00,2,,140
2012-12-2,56,51,45,54,49,39,93,77,61,30.21,30.11,30.05,10,6,2,15,6,22,0.14,8,Rain,201
2012-12-3,62,58,53,56,54,51,100,89,78,30.21,30.17,30.13,10,4,0,9,3,13,0.00,7,Fog,147
2012-12-4,63,52,40,56,49,39,89,77,64,30.17,30.07,29.99,10,9,2,20,7,26,0.44,6,Rain,223
2012-12-5,41,33,25,37,29,20,100,76,52,30.42,30.28,30.16,10,5,0,15,3,20,0.00,4,Fog,351
2012-12-6,45,33,21,31,24,18,92,71,49,30.38,30.22,30.05,10,10,8,9,2,20,T,1,Rain,152
2012-12-7,49,43,37,47,44,33,100,88,76,30.03,29.95,29.86,10,3,1,8,1,18,0.72,8,Rain,153
2012-12-8,55,49,42,50,46,37,93,85,76,30.12,29.92,29.82,10,8,2,14,6,17,0.04,8,Rain,295
2012-12-9,59,49,39,56,42,33,93,82,70,30.15,29.95,29.71,10,8,2,12,6,17,0.32,8,Rain-Thunderstorm,120
2012-12-10,59,48,36,55,43,33,92,86,79,29.86,29.69,29.60,10,6,2,22,6,62,0.62,8,Rain,270
2012-12-11,38,34,29,33,29,23,92,78,64,30.26,30.06,29.88,10,9,3,10,4,16,T,7,,257
2012-12-12,42,32,22,27,23,19,92,71,49,30.46,30.40,30.28,10,9,5,8,1,13,0.00,0,,162
2012-12-13,46,33,20,27,21,16,88,61,33,30.48,30.41,30.31,10,10,7,8,1,17,0.00,0,,120
2012-12-14,50,37,23,29,24,20,92,67,42,30.34,30.29,30.24,10,10,8,7,2,21,0.00,0,,125
2012-12-15,49,39,28,35,29,26,92,67,42,30.24,30.08,29.86,10,10,5,10,4,15,T,4,Rain,148
2012-12-16,59,54,48,50,46,35,83,69,54,29.85,29.75,29.68,10,10,10,13,6,18,0.06,7,Rain,186
2012-12-17,54,48,42,48,44,41,96,88,80,29.76,29.67,29.53,10,4,0,8,1,21,0.42,7,Fog-Rain,86
2012-12-18,47,43,38,45,35,27,92,71,49,29.84,29.70,29.52,10,9,2,15,7,21,0.05,7,Rain,272
2012-12-19,46,39,31,36,33,29,92,79,65,30.17,30.01,29.78,10,8,3,13,2,25,T,6,,287
2012-12-20,49,41,32,43,36,28,100,77,53,30.12,29.65,29.36,10,8,2,25,11,41,0.56,5,Rain,153
2012-12-21,38,35,31,28,26,24,85,72,59,29.81,29.51,29.37,10,5,0,24,14,38,0.03,8,Fog-Snow,269
2012-12-22,34,29,24,25,21,19,75,67,59,30.15,30.05,29.80,10,10,9,24,10,36,T,7,Snow,276
2012-12-23,39,30,21,24,21,17,92,71,50,30.10,30.01,29.94,10,10,7,9,2,25,0.00,0,,180
2012-12-24,37,30,22,32,28,18,96,83,70,30.03,29.88,29.78,10,5,1,7,2,24,0.06,6,Rain,87
2012-12-25,36,35,33,32,28,23,89,77,64,30.24,30.14,29.96,10,8,2,10,5,18,0.00,8,,350
2012-12-26,34,32,29,27,26,23,92,78,64,30.16,29.74,29.59,10,4,0,20,8,30,0.53,8,Fog-Snow,54
2012-12-27,32,30,28,27,25,22,85,79,72,30.17,29.99,29.73,10,10,6,16,8,23,0.00,8,,286
2012-12-28,33,27,21,23,20,17,84,70,56,30.20,30.12,29.91,10,10,8,8,2,12,0.00,6,,354
2012-12-29,34,31,27,28,25,21,85,80,75,30.04,29.81,29.70,10,3,0,14,6,18,0.36,8,Fog-Snow,310
2012-12-30,29,23,17,23,19,15,92,80,68,30.41,30.31,30.05,10,8,2,17,7,25,T,6,Snow,259
2012-12-31,33,25,16,28,24,15,92,76,59,30.35,30.14,30.04,10,6,0,14,5,21,0.02,5,Fog-Snow,216